User: anonymous   Login
Location: Unspecified
(0.0000°N, 0.0000°E)
Time: 06:35:00
(UTC+00:00)
Language:

Vanguard 2 Rocket - Orbit

View from above orbital plane
View from above orbital plane
View from above satellite
View from above satellite

Ground track
Ground track

The orbit data is extracted from the following two-line orbital elements,

1 00012U 59001B   24202.58920139  .00003993  00000-0  23695-2 0  9996
2 00012  32.8955 157.3925 1653723  20.3554 345.5791 11.46682390451267
Epoch (UTC): 20 July 2024 14:08:27
Eccentricity: 0.1653723
inclination: 32.8955°
perigee height: 555 km
apogee height: 3302 km
right ascension of ascending node: 157.3925°
argument of perigee: 20.3554°
revolutions per day: 11.46682390
mean anomaly at epoch: 345.5791°
orbit number at epoch: 45126

The dashed part of the orbit path shows where the satellite is in the earth's shadow,  

DLR